Flag for Germany Weather past 2 weeks in Ostfildern, Baden-Württemberg, Germany

Now
27 °F

Clear.


Feels Like: 27 °F
Forecast: 32 / 54 °F
Wind: 1 mph from Northeast

Location: Stuttgart-Echterdingen

Current Time: Mar 7, 2015 at 6:05:07 AM

Latest Report: Mar 7, 2015 at 5:20 AM


Visibility: 10 mi

Pressure: 30.51 "Hg

Humidity: 93%

Dew point: 25 °F

Location of OstfildernLocation

Historic Weather in Ostfildern — Graph

°F

Ostfildern temperature yesterday

Maximum temperature yesterday: 48 °F (at 2:20 PM)
Minimum temperature yesterday: 28 °F (at 4:20 AM)
Average temperature yesterday: 38 °F

Past Weeks' High & Low Weather Summary

 TemperatureHumidityPressure
High55 °F (Feb 20, 2:20 PM)100% (Feb 20, 5:20 AM)30.63 "Hg (Feb 20, 5:20 AM)
Low25 °F (Feb 20, 5:20 AM)34% (Feb 26, 3:20 PM)29.50 "Hg (Feb 23, 3:20 PM)
Average39 °F76%30.01 "Hg
* Reported Feb 20 5:20 AM — Mar 7 5:20 AM, Ostfildern, Weather by CustomWeather, © 2015

Note: Actual official high and low records may vary slightly from our data, if they occured in-between our weather recording intervals... More about our weather records

Advertising

Ostfildern weather history for previous 24 hours

 ConditionsComfort  
Time TempWeatherWind HumidityBarometerVisibility
5:20 AM
Sat, Mar 7
27 °FClear.1 mph93%30.51 "Hg10 mi
4:50 AM28 °FClear.No wind86%30.51 "Hg10 mi
4:20 AM28 °FClear.No wind93%30.51 "Hg10 mi
3:50 AM28 °FClear.1 mph93%30.51 "Hg10 mi
3:20 AM30 °FClear.No wind86%30.54 "Hg10 mi
2:50 AM30 °FClear.2 mph86%30.54 "Hg10 mi
2:20 AM30 °FClear.1 mph86%30.54 "Hg10 mi
1:50 AM30 °FClear.2 mph80%30.54 "Hg10 mi
1:20 AM32 °FClear.2 mph80%30.54 "Hg10 mi
12:50 AM32 °FClear.2 mph87%30.54 "Hg10 mi
12:20 AM32 °FClear.1 mph80%30.54 "Hg10 mi
11:50 PM
Fri, Mar 6
34 °FClear.1 mph81%30.54 "Hg10 mi
11:20 PM34 °FClear.2 mph75%30.54 "Hg10 mi
10:50 PM36 °FClear.2 mph75%30.54 "Hg10 mi
10:20 PM36 °FClear.2 mph75%30.57 "Hg10 mi
9:50 PM37 °FClear.2 mph70%30.57 "Hg10 mi
9:20 PM39 °FClear.2 mph65%30.57 "Hg10 mi
8:50 PM39 °FClear.2 mph65%30.57 "Hg10 mi
8:20 PM41 °FClear.1 mph61%30.57 "Hg10 mi
7:50 PM41 °FClear.7 mph61%30.57 "Hg10 mi
7:20 PM43 °FClear.6 mph57%30.54 "Hg10 mi
6:50 PM43 °FClear.2 mph57%30.54 "Hg10 mi
6:20 PM45 °FClear.5 mph53%30.54 "Hg10 mi
5:50 PM45 °FSunny.2 mph53%30.54 "Hg10 mi
5:20 PM46 °FSunny.2 mph46%30.54 "Hg10 mi
4:50 PM48 °FPassing clouds.3 mph46%30.54 "HgN/A
4:20 PM48 °FPassing clouds.5 mph46%30.54 "HgN/A
3:50 PM48 °FPassing clouds.5 mph46%30.54 "HgN/A
3:20 PM48 °FPassing clouds.6 mph46%30.57 "HgN/A
2:50 PM48 °FPassing clouds.6 mph54%30.57 "HgN/A
2:20 PM48 °FPassing clouds.3 mph46%30.57 "HgN/A
1:50 PM46 °FPassing clouds.2 mph50%30.60 "HgN/A
1:20 PM46 °FPassing clouds.2 mph50%30.60 "HgN/A
12:50 PM46 °FPassing clouds.2 mph50%30.60 "HgN/A
12:20 PM46 °FScattered clouds.3 mph53%30.63 "HgN/A
11:50 AM43 °FScattered clouds.3 mph57%30.63 "HgN/A
11:20 AM43 °FPassing clouds.3 mph61%30.63 "HgN/A
10:50 AM41 °FPassing clouds.3 mph70%30.63 "HgN/A
10:20 AM39 °FScattered clouds.2 mph75%30.63 "HgN/A
9:50 AM37 °FPassing clouds.5 mph75%30.63 "HgN/A
9:20 AM36 °FSunny.2 mph81%30.63 "Hg10 mi
8:50 AM34 °FSunny.1 mph87%30.63 "Hg10 mi
8:20 AM32 °FSunny.1 mph93%30.63 "Hg10 mi
7:50 AM32 °FSunny.1 mph87%30.63 "Hg10 mi
7:20 AM30 °FSunny.2 mph93%30.63 "Hg10 mi
6:50 AM30 °FClear.1 mph93%30.63 "Hg10 mi
6:20 AM30 °FClear.3 mph93%30.60 "Hg10 mi
Weather by CustomWeather, © 2015

See weather overviewHow to use our weather pages